Location: Unnamed Road
(35.9029°N, 51.9749°E)
Time: 21:23:00
(UTC+04:30)

Vanguard 2 Rocket - Visible Passes

Search period start: 06 June 2020 00:00
Search period end: 16 June 2020 00:00
Orbit: 556 x 3325 km, 32.9° (Epoch: 05 June)

Date Brightness Start Highest point End Pass type
(mag) Time Alt. Az. Time Alt. Az. Time Alt. Az.
06 Jun 10.2 20:57:36 10° W 21:08:18 28° SSW 21:22:46 10° SSE visible
07 Jun 10.7 22:17:50 10° WSW 22:23:36 13° SW 22:30:00 10° SSW visible
08 Jun 10.5 21:14:02 10° WSW 21:22:25 18° SW 21:32:53 10° S visible
11 Jun 10.5 20:29:49 10° WSW 20:35:43 14° SSW 20:42:52 10° S visible
